AUA383 LOWL-LOWW

Flight info

Callsign AUA383
Flight time 0h 28m
Altitude 15000
Route PEROL DCT MASUR MASUR3W
Aircraft DH8D/M-SDE2E3FGRY/H

Departure

Time 2026-04-22 16:40
Airport Linz-Hörsching Airport (LOWL)

Arrival

Time 2026-04-22 17:08
Airport Vienna International Airport (LOWW)
Time Latitude Longitude Altitude Speed Heading
2026-04-22 16:24 48.23882 14.19274 976 ft 0 kts 87°
2026-04-22 16:36 48.23868 14.19339 975 ft 11 kts 155°
2026-04-22 16:36 48.23768 14.19371 975 ft 15 kts 123°
2026-04-22 16:37 48.23765 14.19549 975 ft 19 kts 98°
2026-04-22 16:37 48.23657 14.19655 974 ft 19 kts 159°
2026-04-22 16:37 48.23524 14.19732 974 ft 21 kts 159°
2026-04-22 16:37 48.23387 14.19824 974 ft 21 kts 138°
2026-04-22 16:38 48.23367 14.20055 973 ft 25 kts 87°
2026-04-22 16:38 48.23377 14.20329 971 ft 27 kts 86°
2026-04-22 16:38 48.23400 14.20565 968 ft 12 kts 76°
2026-04-22 16:38 48.23383 14.20552 968 ft 7 kts 274°
2026-04-22 16:39 48.23383 14.20520 969 ft 0 kts 267°
2026-04-22 16:39 48.23371 14.20140 972 ft 82 kts 267°
2026-04-22 16:39 48.23330 14.18923 1012 ft 139 kts 268°
2026-04-22 16:39 48.23301 14.17407 1396 ft 154 kts 269°
2026-04-22 16:40 48.23276 14.15760 1953 ft 163 kts 268°
2026-04-22 16:40 48.23231 14.14042 2589 ft 168 kts 268°
2026-04-22 16:40 48.23430 14.10481 3524 ft 183 kts 305°
2026-04-22 16:41 48.24527 14.09584 3915 ft 191 kts 358°
2026-04-22 16:41 48.25713 14.10373 4352 ft 197 kts 49°
2026-04-22 16:41 48.26426 14.12138 4905 ft 199 kts 60°
2026-04-22 16:41 48.27026 14.14014 5487 ft 200 kts 69°
2026-04-22 16:42 48.27423 14.15996 6056 ft 202 kts 73°
2026-04-22 16:42 48.27805 14.18040 6578 ft 205 kts 72°
2026-04-22 16:42 48.28222 14.20219 6700 ft 227 kts 72°
2026-04-22 16:42 48.28669 14.22519 7138 ft 233 kts 72°
2026-04-22 16:43 48.29125 14.24860 7630 ft 236 kts 71°
2026-04-22 16:43 48.29587 14.27228 8164 ft 238 kts 71°
2026-04-22 16:43 48.30052 14.29599 8690 ft 240 kts 71°
2026-04-22 16:43 48.30525 14.32012 9219 ft 241 kts 71°
2026-04-22 16:44 48.30999 14.34435 9748 ft 243 kts 71°
2026-04-22 16:44 48.31477 14.36861 10290 ft 244 kts 71°
2026-04-22 16:44 48.31961 14.39305 10836 ft 245 kts 70°
2026-04-22 16:44 48.32444 14.41762 11379 ft 246 kts 71°
2026-04-22 16:45 48.32927 14.44229 11921 ft 247 kts 70°
2026-04-22 16:45 48.33405 14.46679 12499 ft 246 kts 70°
2026-04-22 16:45 48.33880 14.49126 13074 ft 246 kts 70°
2026-04-22 16:45 48.34365 14.51605 13646 ft 245 kts 69°
2026-04-22 16:46 48.34842 14.54040 14191 ft 245 kts 69°
2026-04-22 16:46 48.35322 14.56511 14680 ft 246 kts 69°
2026-04-22 16:46 48.35804 14.58984 15073 ft 252 kts 69°
2026-04-22 16:46 48.36312 14.61579 15211 ft 266 kts 69°
2026-04-22 16:47 48.36847 14.64302 15251 ft 279 kts 70°
2026-04-22 16:47 48.37409 14.67185 15249 ft 291 kts 71°
2026-04-22 16:47 48.37982 14.70137 15247 ft 300 kts 71°
2026-04-22 16:47 48.38574 14.73199 15246 ft 307 kts 71°
2026-04-22 16:48 48.39170 14.76286 15244 ft 312 kts 71°
2026-04-22 16:48 48.39783 14.79472 15224 ft 317 kts 71°
2026-04-22 16:48 48.40396 14.82667 15210 ft 320 kts 71°
2026-04-22 16:48 48.41012 14.85878 15196 ft 322 kts 71°
2026-04-22 16:49 48.41638 14.89151 15185 ft 324 kts 71°
2026-04-22 16:49 48.42259 14.92403 15184 ft 325 kts 71°
2026-04-22 16:49 48.42888 14.95700 15184 ft 326 kts 71°
2026-04-22 16:49 48.43513 14.98978 15184 ft 327 kts 71°
2026-04-22 16:50 48.44146 15.02309 15184 ft 328 kts 71°
2026-04-22 16:50 48.44767 15.05581 15184 ft 328 kts 71°
2026-04-22 16:50 48.45393 15.08879 15184 ft 328 kts 71°
2026-04-22 16:50 48.46027 15.12230 15183 ft 329 kts 71°
2026-04-22 16:51 48.46652 15.15540 15184 ft 329 kts 71°
2026-04-22 16:51 48.47274 15.18839 15187 ft 329 kts 71°
2026-04-22 16:51 48.47897 15.22142 15192 ft 329 kts 71°
2026-04-22 16:51 48.48519 15.25457 15197 ft 329 kts 71°
2026-04-22 16:52 48.49141 15.28768 15203 ft 329 kts 71°
2026-04-22 16:52 48.49767 15.32111 15205 ft 329 kts 71°
2026-04-22 16:52 48.50382 15.35394 15206 ft 329 kts 71°
2026-04-22 16:52 48.51009 15.38758 15205 ft 329 kts 71°
2026-04-22 16:53 48.51621 15.42051 15197 ft 327 kts 71°
2026-04-22 16:53 48.51922 15.45448 15110 ft 327 kts 87°
2026-04-22 16:53 48.51758 15.48846 14994 ft 325 kts 91°
2026-04-22 16:53 48.51562 15.52234 14879 ft 321 kts 91°
2026-04-22 16:54 48.51371 15.55479 14763 ft 319 kts 91°
2026-04-22 16:54 48.51173 15.58821 14634 ft 317 kts 91°
2026-04-22 16:54 48.50982 15.62083 14510 ft 315 kts 91°
2026-04-22 16:54 48.50789 15.65408 14385 ft 313 kts 91°
2026-04-22 16:55 48.50601 15.68647 14262 ft 312 kts 91°
2026-04-22 16:55 48.50410 15.71900 14140 ft 311 kts 91°
2026-04-22 16:55 48.50219 15.75147 14018 ft 311 kts 91°
2026-04-22 16:55 48.50026 15.78415 13891 ft 310 kts 91°
2026-04-22 16:56 48.49836 15.81632 13769 ft 309 kts 91°
2026-04-22 16:56 48.49646 15.84834 13650 ft 308 kts 91°
2026-04-22 16:56 48.49452 15.88075 13530 ft 307 kts 91°
2026-04-22 16:56 48.49262 15.91263 13412 ft 307 kts 91°
2026-04-22 16:57 48.49069 15.94470 13293 ft 306 kts 91°
2026-04-22 16:57 48.48876 15.97658 13175 ft 306 kts 91°
2026-04-22 16:57 48.48684 16.00830 13057 ft 305 kts 91°
2026-04-22 16:57 48.48488 16.04044 12938 ft 305 kts 91°
2026-04-22 16:58 48.48357 16.06177 12860 ft 305 kts 91°
2026-04-22 16:58 48.48100 16.10393 12705 ft 305 kts 91°
2026-04-22 16:58 48.47951 16.13602 12587 ft 307 kts 90°
2026-04-22 16:58 48.47834 16.16836 12467 ft 309 kts 89°
2026-04-22 16:59 48.47718 16.20035 12347 ft 310 kts 89°
2026-04-22 16:59 48.47598 16.23273 12227 ft 311 kts 90°
2026-04-22 16:59 48.47414 16.26543 12010 ft 317 kts 96°
2026-04-22 16:59 48.46590 16.29638 11725 ft 322 kts 118°
2026-04-22 17:00 48.45292 16.32323 11354 ft 314 kts 124°
2026-04-22 17:00 48.42630 16.37383 10571 ft 303 kts 125°
2026-04-22 17:00 48.41320 16.39860 10181 ft 298 kts 125°
2026-04-22 17:01 48.40044 16.42274 9795 ft 295 kts 125°
2026-04-22 17:01 48.38781 16.44663 9408 ft 292 kts 125°
2026-04-22 17:01 48.37531 16.47030 9024 ft 289 kts 125°
2026-04-22 17:01 48.36285 16.49394 8639 ft 287 kts 125°
2026-04-22 17:02 48.35051 16.51739 8255 ft 285 kts 125°
2026-04-22 17:02 48.33751 16.53948 7856 ft 281 kts 137°
2026-04-22 17:02 48.32032 16.55292 7461 ft 274 kts 161°
2026-04-22 17:02 48.30245 16.56033 7086 ft 266 kts 164°
2026-04-22 17:03 48.28481 16.56733 6698 ft 259 kts 164°
2026-04-22 17:03 48.26752 16.57418 6310 ft 252 kts 164°
2026-04-22 17:03 48.25074 16.58085 5925 ft 246 kts 164°
2026-04-22 17:03 48.23444 16.58735 5542 ft 241 kts 164°
2026-04-22 17:04 48.21845 16.59377 5159 ft 235 kts 164°
2026-04-22 17:04 48.20285 16.60003 4777 ft 230 kts 164°
2026-04-22 17:04 48.18748 16.60625 4391 ft 225 kts 164°
2026-04-22 17:04 48.17256 16.61228 4005 ft 218 kts 164°
2026-04-22 17:05 48.15848 16.61801 3645 ft 204 kts 164°
2026-04-22 17:05 48.14510 16.62343 3292 ft 199 kts 164°
2026-04-22 17:05 48.13188 16.62886 2987 ft 195 kts 164°
2026-04-22 17:05 48.11874 16.63437 2706 ft 191 kts 163°
2026-04-22 17:06 48.10672 16.63985 2493 ft 175 kts 162°
2026-04-22 17:06 48.09535 16.64529 2187 ft 168 kts 161°
2026-04-22 17:06 48.08424 16.64975 1948 ft 163 kts 180°
2026-04-22 17:06 48.07390 16.64453 1749 ft 153 kts 221°
2026-04-22 17:07 48.06731 16.63294 1495 ft 146 kts 250°
2026-04-22 17:07 48.06604 16.61844 1315 ft 142 kts 287°
2026-04-22 17:07 48.07013 16.60484 1155 ft 149 kts 306°
2026-04-22 17:07 48.07797 16.59545 954 ft 143 kts 345°
2026-04-22 17:08 48.08749 16.59184 714 ft 141 kts 343°
2026-04-22 17:08 48.09700 16.58785 618 ft 137 kts 343°
2026-04-22 17:08 48.10517 16.58438 614 ft 93 kts 343°
2026-04-22 17:08 48.10933 16.58256 611 ft 28 kts 330°
2026-04-22 17:09 48.11057 16.58024 610 ft 31 kts 296°
2026-04-22 17:09 48.11141 16.57766 609 ft 25 kts 296°
2026-04-22 17:09 48.11220 16.57527 609 ft 26 kts 295°
2026-04-22 17:09 48.11304 16.57267 608 ft 27 kts 296°
2026-04-22 17:10 48.11390 16.57003 606 ft 28 kts 296°
2026-04-22 17:10 48.11485 16.56887 604 ft 18 kts 18°
2026-04-22 17:10 48.11599 16.56858 603 ft 19 kts 298°
2026-04-22 17:10 48.11652 16.56755 602 ft 9 kts
2026-04-22 17:11 48.11705 16.56790 601 ft 2 kts 26°